Airport Information

KCEC - Del Norte County Airport

KCEC 191756Z AUTO 34017G28KT 10SM CLR 14/08 A3008 RMK AO2 PK WND 35028/1750 SLP188 T01440083 10144 20106 58001


  • General Information

  • Coordinates: N 41°46'48"/ W 124°14'13"
  • Location: N/A
  • Surveyed Elevation: 57 MSL

Operations

Flow Name Active Runways Conditions

Green background denotes normal operations.


Common Frequencies

Callsign Frequency Position Name

More at the Document Center


Charts